軌道要素
Epoch 2015 Aug. 6.0 TT = JDT 2457240.5
T 2015 July 27.79615 TT MPCW
q 0.7152153 (2000.0) P Q
z +0.0040706 Peri. 132.87116 -0.40818973 +0.33477406
+/-0.0000658 Node 88.14549 -0.86013341 -0.45274191
e 0.9970886 Incl. 58.18376 +0.30586217 -0.82640855
From 114 observations 2015 Aug. 9-Oct. 2, mean residual 0".5.
|